Regional Weather Roundup
Issued by NWS Albany, NY

Home | Current Version | Previous Version | Text Only | Print | Product List | Glossary On
Versions: 1 2 3 4 5 6 7 8 9 10 11 12 13 14 15 16 17 18 19 20 21 22 23 24 25 26 27
000
ASUS41 KALY 271610
RWRALY

NEW YORK STATE HOURLY WEATHER ROUNDUP
NATIONAL WEATHER SERVICE ALBANY NY
1200 PM EDT SAT MAY 27 2017

NOTE: "FAIR" INDICATES FEW OR NO CLOUDS BELOW 12,000 FEET WITH NO
SIGNIFICANT WEATHER AND/OR NO OBSTRUCTIONS TO VISIBILITY.

NYZ032-033-038>043-046>054-057>066-NYZ062>081-082-084-271700-
EAST


CITY           SKY/WX    TMP DP  RH WIND       PRES   REMARKS
ALBANY         PTSUNNY   63  49  60 NE10      29.90F
GLENS FALLS    NOT AVBL
POUGHKEEPSIE   PTSUNNY   67  54  63 VRB3      29.87S
NEWBURGH       PTSUNNY   66  57  72 VRB5      29.89S
MONTGOMERY     CLOUDY    67  55  65 CALM      29.86S
WHITE PLAINS   PTSUNNY   71  53  52 W7        29.86S
ISLIP          PTSUNNY   72  54  53 N12       29.87S
NEW YORK CITY  PTSUNNY   71  53  52 NW7       29.86S
CENTRAL PARK   CLOUDY    69  56  62 CALM      29.90S
$$

NYZ005>009-017-018-044>046-055-056-271700-
CENTRAL


CITY           SKY/WX    TMP DP  RH WIND       PRES   REMARKS
FULTON         CLOUDY    60  57  89 CALM      29.91S FOG
SYRACUSE       CLOUDY    60  57  89 SW3       29.91R
ROME           CLOUDY    64  50  60 VRB3      29.90S
ELMIRA         CLOUDY    65  54  67 MISG      29.90S
BINGHAMTON     CLOUDY    57  55  93 W6        29.91S
MONTICELLO     CLOUDY    63  55  77 W6        29.91S
$$

NYZ026>034-041>043-087-271700-
NORTH


CITY           SKY/WX    TMP DP  RH WIND       PRES   REMARKS
WATERTOWN      SUNNY     67  51  56 NE9       29.90S
FORT DRUM      NOT AVBL
OGDENSBURG     FAIR      67  50  54 CALM      29.90F
MASSENA        MOSUNNY   67  52  58 VRB3      29.90F
SARANAC LAKE   CLOUDY    60  49  66 NE5       29.90S
PLATTSBURGH    SUNNY     63  43  48 E8        29.89F
$$

NYZ001>004-010>016-019>021-085-271700-
WEST


CITY           SKY/WX    TMP DP  RH WIND       PRES   REMARKS
NIAGARA FALLS  CLOUDY    63  55  75 S6        29.91S
BUFFALO        CLOUDY    62  55  77 SW7       29.92S
DUNKIRK        CLOUDY    62  55  77 W8        29.92S
JAMESTOWN      CLOUDY    61  52  72 CALM      29.93S
WELLSVILLE     CLOUDY    62  50  64 NE3       29.94S
ROCHESTER      CLOUDY    64  56  75 N5        29.91S
PENN YAN       CLOUDY    62  52  69 CALM      29.92S
$$

             KEY
       WCI = WIND CHILL INDEX
       VSB = VISIBILITY
       HX  = HEAT INDEX
$$




USA.gov is the U.S. government's official web portal to all federal, state and local government web resources and services.